This demonstration page uses our WeatherBlox Daily Observations layout. Learn more.

Left ArrowRight Arrow

47.50024, -111.30081

Hourly Observations for September 25, 2022

Temp ( °F °C ) Dew Point ( °F °C ) Humidity (%) Winds ( mph kmh ) Pressure ( in mb ) Visibility ( mi km ) Precip ( " mm )
12:53 am 00:53 Clear 45 7.2 35 1.7 68 68 W 5 7 30.28 1025 10 16 0.00 0.00
1:53 am 01:53 Clear 47 8.3 36 2.2 65 65 WSW 5 7 30.27 1025 10 16 0.00 0.00
2:53 am 02:53 Clear 45 7.2 36 2.2 70 70 SW 7 11 30.28 1025 10 16 0.00 0.00
3:53 am 03:53 Clear 49 9.4 37 2.8 63 63 SSW 5 7 30.27 1025 10 16 0.00 0.00
4:53 am 04:53 Clear 46 7.8 37 2.8 71 71 S 6 9 30.27 1025 10 16 0.00 0.00
5:53 am 05:53 Clear 40 4.4 36 2.2 86 86 SW 8 13 30.29 1026 10 16 0.00 0.00
6:53 am 06:53 Clear 45 7.2 36 2.2 70 70 SSE 3 6 30.29 1026 10 16 0.00 0.00
7:53 am 07:53 Sunny 45 7.2 37 2.8 74 74 S 5 7 30.31 1027 10 16 0.00 0.00
8:53 am 08:53 Sunny 52 11.1 42 5.6 69 69 SW 5 7 30.29 1026 10 16 0.00 0.00
9:53 am 09:53 Sunny 61 16.1 39 3.9 44 44 SSW 6 9 30.28 1025 10 16 0.00 0.00
10:53 am 10:53 Sunny 65 18.3 37 2.8 36 36 S 7 11 30.27 1025 10 16 0.00 0.00
11:53 am 11:53 Sunny 70 21.1 39 3.9 32 32 SW 7 11 30.26 1025 10 16 0.00 0.00
12:53 pm 12:53 Sunny 73 22.8 37 2.8 27 27 SW 9 15 30.24 1024 10 16 0.00 0.00
1:53 pm 13:53 Sunny 75 23.9 37 2.8 25 25 W 13 20 30.21 1023 10 16 0.00 0.00
2:53 pm 14:53 Sunny 77 25 30 -1.1 18 18 W 10 17 30.18 1022 10 16 0.00 0.00
3:53 pm 15:53 Sunny 78 25.6 31 -0.6 18 18 W 13 20 30.14 1021 10 16 0.00 0.00
4:53 pm 16:53 Sunny 78 25.6 32 0 19 19 VRB 7 11 30.14 1021 10 16 0.00 0.00
5:53 pm 17:53 Sunny 77 25 34 1.1 21 21 SW 8 13 30.14 1021 10 16 0.00 0.00
6:53 pm 18:53 Sunny 71 21.7 38 3.3 30 30 SSW 5 7 30.14 1021 10 16 0.00 0.00
7:53 pm 19:53 Clear 63 17.2 38 3.3 39 39 SSW 7 11 30.15 1021 10 16 0.00 0.00
8:53 pm 20:53 Clear 60 15.6 38 3.3 44 44 SSW 9 15 30.14 1021 10 16 0.00 0.00
9:53 pm 21:53 Clear 56 13.3 38 3.3 51 51 SSW 10 17 30.14 1021 10 16 0.00 0.00
10:53 pm 22:53 Clear 54 12.2 39 3.9 57 57 SW 12 19 30.14 1021 10 16 0.00 0.00
11:53 pm 23:53 Clear 54 12.2 40 4.4 59 59 SW 10 17 30.14 1021 10 16 0.00 0.00

Powered by AerisWeather